Regional Weather Roundup
Issued by NWS Sioux Falls, SD

Home | Current Version | Previous Version | Text Only | Print | Product List | Glossary On
Versions: 1 2 3 4 5 6 7 8 9 10 11 12 13 14 15 16 17 18 19 20 21 22 23 24 25 26 27 28 29 30 31 32 33 34 35 36 37 38 39 40 41 42 43 44 45 46 47 48 49 50
929
ASUS43 KFSD 030910
RWRFSD

WEATHER ROUNDUP FOR SE SOUTH DAKOTA/SW MINNESOTA/NW IOWA
NATIONAL WEATHER SERVICE SIOUX FALLS SD
400 AM CDT TUE MAY 03 2016

NOTE: "FAIR" INDICATES FEW OR NO CLOUDS BELOW 12,000 FEET WITH NO
SIGNIFICANT WEATHER AND OR OBSTRUCTIONS TO VISIBILITY.


SDZ038>040-050-052>070-031000-
SOUTHEAST SOUTH DAKOTA

CITY           SKY/WX    TMP DP  RH WIND       PRES   REMARKS
BROOKINGS      CLEAR     42  39  89 SE3       30.01S
CHAMBERLAIN    CLEAR     42  42  98 W8        30.04S
HURON          CLEAR     41  39  93 CALM      30.02S
MADISON        FAIR      39  39 100 CALM      30.02S
MITCHELL       CLEAR     45  44  97 CALM      30.03S
SIOUX FALLS    CLEAR     36  35  96 CALM      30.02S
WINNER         FAIR      43  37  79 SW6       30.05R
YANKTON        CLEAR     41  36  81 NW7       30.02R
$$

MNZ071-072-080-081-089-090-097-098-031000-
SOUTHWEST MINNESOTA

CITY           SKY/WX    TMP DP  RH WIND       PRES   REMARKS
FAIRMONT       CLEAR     46  36  66 W9        30.00R
JACKSON        PTCLDY    45  36  70 W3        30.01S
LUVERNE        CLEAR     37  36  93 CALM      30.02S
MARSHALL       CLEAR     46  38  73 W8        30.00S
MONTEVIDEO     CLEAR     45  37  76 NW7       30.00S
PIPESTONE      CLEAR     43  37  81 CALM      30.01S
REDWOOD FALLS  CLEAR     50  37  61 W12       29.98F
TRACY          CLEAR     51  40  67 W7        30.00S
WINDOM         CLEAR     43  39  87 CALM      30.00S
WORTHINGTON    CLEAR     44  38  79 W8        30.02R
$$

IAZ001>003-012>014-020>022-031-032-NEZ013-014-SDZ071-031000-
NORTHWEST IOWA

CITY           SKY/WX    TMP DP  RH WIND       PRES   REMARKS
CHEROKEE       CLEAR     38  38 100 CALM      30.02S FOG
DENISON        CLEAR     39  37  93 CALM      30.02S
ESTHERVILLE    CLEAR     41  38  89 W3        30.01S
LE MARS          N/A     41  39  93 CALM      30.03S
ORANGE CITY    CLEAR     46  39  76 CALM      30.02S
SHELDON        CLEAR     41  39  93 CALM      30.01R
SIOUX CITY     CLEAR     44  40  85 CALM      30.02F
SPENCER        CLEAR     39  37  92 W3        30.02S
STORM LAKE     CLEAR     48  37  66 SW7       30.03S
$$

ABBREVIATIONS USED IN REMARKS
   TC - TEMPERATURE IN CELSIUS
  WCI - WIND CHILL INDEX
   HX - HEAT INDEX
  VSB - VISIBILITY





USA.gov is the U.S. government's official web portal to all federal, state and local government web resources and services.